Regional Weather Roundup
Issued by NWS Burlington, VT

Current Version | Previous Version | Text Only | Print | Product List | Glossary On
Versions: 1 2 3 4 5 6 7 8 9 10 11 12 13 14 15 16 17 18 19 20 21 22 23 24 25 26 27 28 29 30 31 32 33 34 35 36 37 38 39 40 41 42 43 44 45 46 47 48 49 50
000 ASUS41 KBTV 230230 RWRBTV VERMONT REGIONAL WEATHER ROUNDUP NATIONAL WEATHER SERVICE BURLINGTON VT 900 PM EST SAT NOV 22 2014 NOTE: "FAIR" INDICATES FEW OR NO CLOUDS BELOW 12,000 FEET WITH NO SIGNIFICANT WEATHER AND/OR OBSTRUCTIONS TO VISIBILITY. * THESE REPORTS ARE NOT UNDER NWS QUALITY CONTROL AND/OR DO NOT REPORT WEATHER SUCH AS PRECIPITATION AND FOG. VTZ001>019-230300- _____VERMONT_____ CITY SKY/WX TMP DP RH WIND PRES REMARKS BURLINGTON CLOUDY 39 20 46 S18G28 29.94S MONTPELIER CLOUDY 40 31 70 VRB7 29.96S ST. JOHNSBURY* N/A 36 20 52 MISG 29.92F LYNDONVILLE* CLOUDY 33 18 53 SE6 29.93S MIDDLEBURY* CLOUDY 39 21 48 S16 30.00R RUTLAND* CLOUDY 39 27 60 SW3 30.02S SPRINGFIELD PTCLDY 31 20 63 NW3 30.00F HIGHGATE* MIX PCPN 36 26 65 S8 29.91S NEWPORT* CLOUDY 32 26 77 S7 29.91F BENNINGTON CLOUDY 40 21 46 VRB5 30.05S SUTTON* N/A 30 N/A N/A MISG N/A GALLUP MILLS* N/A 30 N/A N/A MISG N/A UNION VILLAGE* N/A 36 N/A N/A MISG N/A MT. MANSFIELD* N/A 27 N/A N/A W21G33 N/A WCI 13 _____LAKE CHAMPLAIN_____ CITY SKY/WX TMP DP RH WIND PRES REMARKS BURTON ISLAND* N/A 39 32 75 S24 N/A COLCHESTER RF* N/A 39 28 65 SW32 N/A DIAMOND ISL* N/A 37 23 56 S23 N/A $$ NYZ007-026>031-035-052-083-230300- _____NORTHERN NEW YORK_____ CITY SKY/WX TMP DP RH WIND PRES REMARKS PLATTSBURGH CLOUDY 36 26 67 S3 29.93S SARANAC LAKE CLOUDY 36 34 92 SW13 29.90R FOG MASSENA LGT RAIN 38 37 97 SW12 29.92R FOG OGDENSBURG* DRIZZLE 39 37 93 SW12 29.91S POTSDAM* CLOUDY 39 39 100 SW13G20 29.92R FOG STARK FALLS* N/A 37 N/A N/A SW10 N/A WATERTOWN CLOUDY 42 36 79 S13G21 29.96S FT DRUM CLOUDY 39 39 100 SW16G23 29.93F ALBANY CLOUDY 39 22 50 S10 30.08F GLENS FALLS CLOUDY 36 20 52 S13 30.03F $$ NHZ002-005-011-230300- _____NEW HAMPSHIRE_____ CITY SKY/WX TMP DP RH WIND PRES REMARKS LEBANON CLOUDY 39 20 46 S12 29.97F KEENE CLOUDY 37 12 35 S6 30.05S MT WASHINGTON FOG 19 19 100 NW70 N/A VSB 0 WCI -6 PLYMOUTH CLOUDY 32 24 73 CALM 29.98R WHITEFIELD CLOUDY 39 25 57 W3 29.93S $$ _____REGIONAL QUEBEC LOCATIONS_____ CITY SKY/WX TMP DP RH WIND PRES REMARKS MONTREAL DRIZZLE 36 34 93 W13G18 29.89S QUEBEC CITY LGT SNOW 30 28 93 SW17 29.82F BLWGSNOWWCI 18 SHERBROOKE CLOUDY 30 28 93 SW5 29.88F _____REGIONAL ONTARIO LOCATIONS_____ CITY SKY/WX TMP DP RH WIND PRES REMARKS OTTAWA CLOUDY 37 36 93 SW12 29.88S ______KEY______ VSB - VISIBILITY IN MILES WCI - WIND CHILL INDEX HX - HEAT INDEX $$ NNNN

USA.gov is the U.S. government's official web portal to all federal, state and local government web resources and services.